Location: Waco, TX
(31.5480°N, 97.1670°W)
Time: 09:21:06
(UTC-05:00)

ISS - Pass Details

Date: 21 May 2017
Orbit: 402 x 409 km, 51.6° (Epoch: 25 May)

Event Time Altitude Azimuth Distance (km) Brightness Sun altitude
Rises 23:33:01 0° 257° (WSW) 2,322 - -31.5°
Reaches altitude 10° 23:35:30 10° 276° (W) 1,463 - -31.7°
Maximum altitude 23:37:56 19° 324° (NW) 1,041 - -32.0°
Drops below altitude 10° 23:40:22 10° 12° (NNE) 1,465 - -32.3°
Sets 23:42:52 0° 31° (NNE) 2,327 - -32.5°
